status,avgMeasuredTime,avgSpeed,extID,medianMeasuredTime,TIMESTAMP,vehicleCount,_id,REPORT_ID
OK,61,55,849,61,2014-08-01T07:55:00,0,20746573,197355
OK,61,55,849,61,2014-08-01T08:00:00,0,20746904,197355
OK,61,55,849,61,2014-08-01T08:05:00,0,20747353,197355
OK,61,55,849,61,2014-08-01T08:10:00,0,20747726,197355
OK,61,55,849,61,2014-08-01T08:15:00,0,20748175,197355
OK,61,55,849,61,2014-08-01T08:20:00,0,20748624,197355
OK,61,55,849,61,2014-08-01T08:25:00,0,20749073,197355
OK,66,50,849,66,2014-08-01T08:30:00,1,20749522,197355
OK,66,50,849,66,2014-08-01T08:35:00,0,20749971,197355
OK,66,50,849,66,2014-08-01T08:40:00,0,20750420,197355
OK,66,50,849,66,2014-08-01T08:45:00,0,20750869,197355
OK,66,50,849,66,2014-08-01T08:50:00,0,20751318,197355
OK,66,50,849,66,2014-08-01T08:55:00,0,20751767,197355
OK,66,50,849,66,2014-08-01T09:00:00,0,20752216,197355
OK,66,50,849,66,2014-08-01T09:05:00,0,20752665,197355
OK,66,50,849,66,2014-08-01T09:10:00,0,20753114,197355
OK,66,50,849,66,2014-08-01T09:15:00,0,20753563,197355
OK,66,50,849,66,2014-08-01T09:20:00,0,20754012,197355
OK,66,50,849,66,2014-08-01T09:25:00,0,20754461,197355
OK,66,50,849,66,2014-08-01T09:30:00,0,20754910,197355
OK,66,50,849,66,2014-08-01T09:35:00,0,20755359,197355
OK,66,50,849,66,2014-08-01T09:40:00,0,20755808,197355
OK,66,50,849,66,2014-08-01T09:45:00,0,20756257,197355
OK,66,50,849,66,2014-08-01T09:50:00,0,20756706,197355
OK,66,50,849,66,2014-08-01T09:55:00,0,20757155,197355
OK,66,50,849,66,2014-08-01T10:00:00,0,20757604,197355
OK,66,50,849,66,2014-08-01T10:05:00,0,20758053,197355
OK,66,50,849,66,2014-08-01T10:10:00,0,20758502,197355
OK,66,50,849,66,2014-08-01T10:15:00,0,20758951,197355
OK,66,50,849,66,2014-08-01T10:20:00,0,20759400,197355
OK,66,50,849,66,2014-08-01T10:25:00,0,20759849,197355
OK,66,50,849,66,2014-08-01T10:30:00,0,20760298,197355
OK,62,54,849,62,2014-08-01T10:35:00,1,20760747,197355
OK,62,54,849,62,2014-08-01T10:40:00,1,20761196,197355
OK,62,54,849,62,2014-08-01T10:45:00,0,20761645,197355
OK,62,54,849,62,2014-08-01T10:50:00,0,20762094,197355
OK,62,54,849,62,2014-08-01T10:55:00,0,20762543,197355
OK,62,54,849,62,2014-08-01T11:00:00,0,20762992,197355
OK,62,54,849,62,2014-08-01T11:05:00,0,20763441,197355
OK,51,65,849,51,2014-08-01T11:10:00,1,20763890,197355
OK,51,65,849,51,2014-08-01T11:15:00,1,20764338,197355
OK,51,65,849,51,2014-08-01T11:20:00,0,20764787,197355
OK,51,65,849,51,2014-08-01T11:25:00,0,20765236,197355
OK,64,52,849,64,2014-08-01T11:30:00,1,20765685,197355
OK,64,52,849,64,2014-08-01T11:35:00,0,20766134,197355
OK,42,80,849,42,2014-08-01T11:40:00,2,20766583,197355
OK,42,80,849,42,2014-08-01T11:45:00,2,20767032,197355
OK,42,80,849,42,2014-08-01T11:50:00,0,20767481,197355
OK,42,80,849,42,2014-08-01T11:55:00,0,20767930,197355
OK,42,80,849,42,2014-08-01T12:00:00,0,20768379,197355
OK,42,80,849,42,2014-08-01T12:05:00,0,20768828,197355
OK,42,80,849,42,2014-08-01T12:10:00,0,20769277,197355
OK,42,80,849,42,2014-08-01T12:15:00,0,20769726,197355
OK,42,80,849,42,2014-08-01T12:20:00,0,20770175,197355
OK,42,80,849,42,2014-08-01T12:25:00,0,20770624,197355
OK,65,51,849,65,2014-08-01T12:30:00,1,20771073,197355
OK,65,51,849,65,2014-08-01T12:35:00,0,20771522,197355
OK,65,51,849,65,2014-08-01T12:40:00,0,20771971,197355
OK,65,51,849,65,2014-08-01T12:45:00,0,20772420,197355
OK,65,51,849,65,2014-08-01T12:50:00,0,20772869,197355
OK,65,51,849,65,2014-08-01T12:55:00,0,20773318,197355
OK,65,51,849,65,2014-08-01T13:00:00,0,20773767,197355
OK,65,51,849,65,2014-08-01T13:05:00,0,20774216,197355
OK,65,51,849,65,2014-08-01T13:10:00,0,20774665,197355
OK,65,51,849,65,2014-08-01T13:15:00,0,20775114,197355
OK,65,51,849,65,2014-08-01T13:20:00,0,20775563,197355
OK,65,51,849,65,2014-08-01T13:25:00,0,20776012,197355
OK,65,51,849,65,2014-08-01T13:30:00,0,20776461,197355
OK,65,51,849,65,2014-08-01T13:35:00,0,20776910,197355
OK,65,51,849,65,2014-08-01T13:40:00,0,20777359,197355
OK,65,51,849,65,2014-08-01T13:45:00,0,20777808,197355
OK,65,51,849,65,2014-08-01T13:50:00,0,20778257,197355
OK,50,67,849,50,2014-08-01T13:55:00,1,20778706,197355
OK,50,67,849,50,2014-08-01T14:00:00,1,20779155,197355
OK,142,23,849,142,2014-08-01T14:05:00,1,20779604,197355
OK,69,48,849,69,2014-08-01T14:10:00,1,20780053,197355
OK,69,48,849,69,2014-08-01T14:15:00,1,20780502,197355
OK,69,48,849,69,2014-08-01T14:20:00,0,20780951,197355
OK,69,48,849,69,2014-08-01T14:25:00,0,20781400,197355
OK,69,48,849,69,2014-08-01T14:30:00,0,20781849,197355
OK,69,48,849,69,2014-08-01T14:35:00,0,20782298,197355
OK,69,48,849,69,2014-08-01T14:40:00,0,20782747,197355
OK,69,48,849,69,2014-08-01T14:45:00,0,20783196,197355
OK,69,48,849,69,2014-08-01T14:50:00,0,20783645,197355
OK,60,56,849,60,2014-08-01T14:55:00,1,20784094,197355
OK,60,56,849,60,2014-08-01T15:00:00,1,20784543,197355
OK,60,56,849,60,2014-08-01T15:05:00,0,20784992,197355
OK,60,56,849,60,2014-08-01T15:10:00,0,20785441,197355
OK,130,25,849,130,2014-08-01T15:15:00,1,20785890,197355
OK,130,25,849,130,2014-08-01T15:20:00,1,20786339,197355
OK,130,25,849,130,2014-08-01T15:25:00,0,20786788,197355
OK,130,25,849,130,2014-08-01T15:30:00,0,20787237,197355
OK,130,25,849,130,2014-08-01T15:35:00,0,20787686,197355
OK,130,25,849,130,2014-08-01T15:40:00,0,20788135,197355
OK,130,25,849,130,2014-08-01T15:45:00,0,20788584,197355
OK,69,48,849,69,2014-08-01T15:50:00,1,20789033,197355
OK,69,48,849,69,2014-08-01T15:55:00,0,20789482,197355
OK,69,48,849,69,2014-08-01T16:00:00,0,20789931,197355
OK,69,48,849,69,2014-08-01T16:05:00,0,20790380,197355
OK,69,48,849,69,2014-08-01T16:10:00,0,20790829,197355
OK,69,48,849,69,2014-08-01T16:15:00,0,20791278,197355
OK,69,48,849,69,2014-08-01T16:20:00,0,20791727,197355
OK,69,48,849,69,2014-08-01T16:25:00,0,20792176,197355
OK,69,48,849,69,2014-08-01T16:30:00,0,20792625,197355
OK,69,48,849,69,2014-08-01T16:35:00,0,20793074,197355
OK,69,48,849,69,2014-08-01T16:40:00,0,20793523,197355
OK,69,48,849,69,2014-08-01T16:45:00,0,20793972,197355
OK,69,48,849,69,2014-08-01T16:50:00,0,20794421,197355
OK,69,48,849,69,2014-08-01T16:55:00,0,20794870,197355
OK,69,48,849,69,2014-08-01T17:00:00,0,20795319,197355
OK,69,48,849,69,2014-08-01T17:05:00,0,20795768,197355
OK,69,48,849,69,2014-08-01T17:10:00,0,20796217,197355
OK,69,48,849,69,2014-08-01T17:15:00,0,20796666,197355
OK,69,48,849,69,2014-08-01T17:20:00,0,20797115,197355
OK,69,48,849,69,2014-08-01T17:25:00,0,20797564,197355
OK,69,48,849,69,2014-08-01T17:30:00,0,20798013,197355
OK,69,48,849,69,2014-08-01T17:35:00,0,20798462,197355
OK,69,48,849,69,2014-08-01T17:40:00,0,20798911,197355
OK,69,48,849,69,2014-08-01T17:45:00,0,20799360,197355
OK,69,48,849,69,2014-08-01T17:50:00,0,20799809,197355
OK,69,48,849,69,2014-08-01T17:55:00,0,20800258,197355
OK,69,48,849,69,2014-08-01T18:00:00,0,20800707,197355
OK,69,48,849,69,2014-08-01T18:05:00,0,20801156,197355
OK,69,48,849,69,2014-08-01T18:10:00,0,20801605,197355
OK,69,48,849,69,2014-08-01T18:15:00,0,20802054,197355
OK,69,48,849,69,2014-08-01T18:20:00,0,20802503,197355
OK,69,48,849,69,2014-08-01T18:25:00,0,20802952,197355
OK,69,48,849,69,2014-08-01T18:30:00,0,20803401,197355
OK,69,48,849,69,2014-08-01T18:35:00,0,20803850,197355
OK,69,48,849,69,2014-08-01T18:40:00,0,20804299,197355
OK,69,48,849,69,2014-08-01T18:45:00,0,20804748,197355
OK,69,48,849,69,2014-08-01T18:50:00,0,20805197,197355
OK,69,48,849,69,2014-08-01T18:55:00,0,20805646,197355
OK,69,48,849,69,2014-08-01T19:00:00,0,20806095,197355
OK,69,48,849,69,2014-08-01T19:05:00,0,20806544,197355
OK,69,48,849,69,2014-08-01T19:10:00,0,20806993,197355
OK,69,48,849,69,2014-08-01T19:15:00,0,20807442,197355
OK,69,48,849,69,2014-08-01T19:20:00,0,20807891,197355
OK,69,48,849,69,2014-08-01T19:25:00,0,20808340,197355
OK,69,48,849,69,2014-08-01T19:30:00,0,20808789,197355
OK,69,48,849,69,2014-08-01T19:35:00,0,20809238,197355
OK,69,48,849,69,2014-08-01T19:40:00,0,20809687,197355
OK,69,48,849,69,2014-08-01T19:45:00,0,20810136,197355
OK,69,48,849,69,2014-08-01T19:50:00,0,20810585,197355
OK,69,48,849,69,2014-08-01T19:55:00,0,20811034,197355
OK,69,48,849,69,2014-08-01T22:00:00,0,20816763,197355
OK,69,48,849,69,2014-08-01T22:05:00,0,20817212,197355
OK,69,48,849,69,2014-08-02T00:00:00,0,20823202,197355
OK,69,48,849,69,2014-08-02T00:05:00,0,20823651,197355
OK,69,48,849,69,2014-08-02T00:10:00,0,20824100,197355
OK,69,48,849,69,2014-08-02T00:15:00,0,20824549,197355
OK,69,48,849,69,2014-08-02T00:20:00,0,20824998,197355
OK,69,48,849,69,2014-08-02T00:25:00,0,20825447,197355
OK,69,48,849,69,2014-08-02T00:30:00,0,20825896,197355
OK,69,48,849,69,2014-08-02T00:35:00,0,20826345,197355
OK,69,48,849,69,2014-08-02T00:40:00,0,20826794,197355
OK,69,48,849,69,2014-08-02T00:45:00,0,20827243,197355
OK,69,48,849,69,2014-08-02T00:50:00,0,20827692,197355
OK,69,48,849,69,2014-08-02T00:55:00,0,20828141,197355
OK,69,48,849,69,2014-08-02T01:00:00,0,20828590,197355
OK,69,48,849,69,2014-08-02T01:05:00,0,20829039,197355
OK,69,48,849,69,2014-08-02T01:10:00,0,20829488,197355
OK,69,48,849,69,2014-08-02T01:15:00,0,20829937,197355
OK,69,48,849,69,2014-08-02T01:20:00,0,20830386,197355
OK,69,48,849,69,2014-08-02T01:25:00,0,20830835,197355
OK,69,48,849,69,2014-08-02T01:30:00,0,20831284,197355
OK,69,48,849,69,2014-08-02T01:35:00,0,20831733,197355
OK,69,48,849,69,2014-08-02T01:40:00,0,20832182,197355
OK,69,48,849,69,2014-08-02T01:45:00,0,20832631,197355
OK,69,48,849,69,2014-08-02T01:50:00,0,20833080,197355
OK,69,48,849,69,2014-08-02T01:55:00,0,20833529,197355
OK,69,48,849,69,2014-08-02T02:00:00,0,20833978,197355
OK,69,48,849,69,2014-08-02T02:05:00,0,20834427,197355
OK,69,48,849,69,2014-08-02T02:10:00,0,20834876,197355
OK,69,48,849,69,2014-08-02T02:15:00,0,20835325,197355
OK,69,48,849,69,2014-08-02T02:20:00,0,20835774,197355
OK,69,48,849,69,2014-08-02T02:25:00,0,20836223,197355
OK,69,48,849,69,2014-08-02T02:30:00,0,20836672,197355
OK,69,48,849,69,2014-08-02T02:35:00,0,20837121,197355
OK,69,48,849,69,2014-08-02T02:40:00,0,20837570,197355
OK,69,48,849,69,2014-08-02T02:45:00,0,20838019,197355
OK,69,48,849,69,2014-08-02T02:50:00,0,20838468,197355
OK,69,48,849,69,2014-08-02T02:55:00,0,20838917,197355
OK,69,48,849,69,2014-08-02T03:00:00,0,20839366,197355
OK,69,48,849,69,2014-08-02T03:05:00,0,20839815,197355
OK,69,48,849,69,2014-08-02T03:10:00,0,20840264,197355
OK,69,48,849,69,2014-08-02T03:15:00,0,20840713,197355
OK,69,48,849,69,2014-08-02T03:20:00,0,20841162,197355
OK,69,48,849,69,2014-08-02T03:25:00,0,20841611,197355
OK,69,48,849,69,2014-08-02T03:30:00,0,20842060,197355
OK,69,48,849,69,2014-08-02T03:35:00,0,20842509,197355
OK,69,48,849,69,2014-08-02T03:40:00,0,20842958,197355
OK,69,48,849,69,2014-08-02T03:45:00,0,20843407,197355
OK,69,48,849,69,2014-08-02T03:50:00,0,20843856,197355
OK,69,48,849,69,2014-08-02T03:55:00,0,20844305,197355
OK,69,48,849,69,2014-08-02T06:00:00,0,20851759,197355
OK,69,48,849,69,2014-08-02T06:05:00,0,20852208,197355
OK,69,48,849,69,2014-08-02T06:10:00,0,20852657,197355
OK,69,48,849,69,2014-08-02T06:15:00,0,20853106,197355
OK,69,48,849,69,2014-08-02T06:20:00,0,20853555,197355
OK,69,48,849,69,2014-08-02T06:25:00,0,20854004,197355
OK,69,48,849,69,2014-08-02T06:30:00,0,20854453,197355
OK,69,48,849,69,2014-08-02T06:35:00,0,20854902,197355
OK,69,48,849,69,2014-08-02T06:40:00,0,20855351,197355
OK,69,48,849,69,2014-08-02T06:45:00,0,20855800,197355
OK,69,48,849,69,2014-08-02T06:50:00,0,20856249,197355
OK,69,48,849,69,2014-08-02T06:55:00,0,20856698,197355
OK,69,48,849,69,2014-08-02T07:00:00,0,20857147,197355
OK,69,48,849,69,2014-08-02T07:05:00,0,20857596,197355
OK,69,48,849,69,2014-08-02T07:10:00,0,20858045,197355
OK,69,48,849,69,2014-08-02T07:15:00,0,20858494,197355
OK,69,48,849,69,2014-08-02T07:20:00,0,20858943,197355
OK,69,48,849,69,2014-08-02T07:25:00,0,20859392,197355
OK,69,48,849,69,2014-08-02T07:30:00,0,20859841,197355
OK,69,48,849,69,2014-08-02T07:35:00,0,20860290,197355
OK,69,48,849,69,2014-08-02T07:40:00,0,20860739,197355
OK,69,48,849,69,2014-08-02T07:45:00,0,20861188,197355
OK,69,48,849,69,2014-08-02T07:50:00,0,20861637,197355
OK,69,48,849,69,2014-08-02T07:55:00,0,20862086,197355
OK,69,48,849,69,2014-08-02T08:00:00,0,20862535,197355
OK,69,48,849,69,2014-08-02T08:05:00,0,20862984,197355
OK,69,48,849,69,2014-08-02T08:10:00,0,20863433,197355
OK,69,48,849,69,2014-08-02T08:15:00,0,20863882,197355
OK,69,48,849,69,2014-08-02T08:20:00,0,20864331,197355
OK,69,48,849,69,2014-08-02T08:25:00,0,20864780,197355
OK,69,48,849,69,2014-08-02T08:30:00,0,20865229,197355
OK,69,48,849,69,2014-08-02T08:35:00,0,20865678,197355
OK,69,48,849,69,2014-08-02T08:40:00,0,20866127,197355
OK,69,48,849,69,2014-08-02T08:45:00,0,20866576,197355
OK,69,48,849,69,2014-08-02T08:50:00,0,20867025,197355
OK,69,48,849,69,2014-08-02T08:55:00,0,20867474,197355
OK,69,48,849,69,2014-08-02T09:00:00,0,20867923,197355
OK,69,48,849,69,2014-08-02T09:05:00,0,20868372,197355
OK,69,48,849,69,2014-08-02T09:10:00,0,20868821,197355
OK,69,48,849,69,2014-08-02T09:15:00,0,20869270,197355
OK,69,48,849,69,2014-08-02T09:20:00,0,20869719,197355
OK,69,48,849,69,2014-08-02T09:25:00,0,20870168,197355
OK,69,48,849,69,2014-08-02T09:30:00,0,20870617,197355
OK,69,48,849,69,2014-08-02T09:35:00,0,20871066,197355
OK,69,48,849,69,2014-08-02T09:40:00,0,20871515,197355
OK,69,48,849,69,2014-08-02T09:45:00,0,20871964,197355
OK,69,48,849,69,2014-08-02T09:50:00,0,20872413,197355
OK,69,48,849,69,2014-08-02T09:55:00,0,20872862,197355
OK,69,48,849,69,2014-08-02T10:00:00,0,20873311,197355
OK,69,48,849,69,2014-08-02T10:05:00,0,20873760,197355
OK,69,48,849,69,2014-08-02T10:10:00,0,20874209,197355
OK,69,48,849,69,2014-08-02T10:15:00,0,20874658,197355
OK,69,48,849,69,2014-08-02T10:20:00,0,20875107,197355
OK,69,48,849,69,2014-08-02T10:25:00,0,20875556,197355
OK,69,48,849,69,2014-08-02T10:30:00,0,20876005,197355
OK,69,48,849,69,2014-08-02T10:35:00,0,20876454,197355
OK,69,48,849,69,2014-08-02T10:40:00,0,20876903,197355
OK,69,48,849,69,2014-08-02T10:45:00,0,20877352,197355
OK,69,48,849,69,2014-08-02T10:50:00,0,20877801,197355
OK,69,48,849,69,2014-08-02T10:55:00,0,20878250,197355
OK,69,48,849,69,2014-08-02T11:00:00,0,20878699,197355
OK,69,48,849,69,2014-08-02T11:05:00,0,20879148,197355
OK,69,48,849,69,2014-08-02T11:10:00,0,20879597,197355
OK,69,48,849,69,2014-08-02T11:15:00,0,20880046,197355
OK,69,48,849,69,2014-08-02T11:20:00,0,20880495,197355
OK,69,48,849,69,2014-08-02T11:25:00,0,20880944,197355
OK,69,48,849,69,2014-08-02T11:30:00,0,20881393,197355
OK,69,48,849,69,2014-08-02T11:35:00,0,20881842,197355
OK,69,48,849,69,2014-08-02T11:40:00,0,20882291,197355
OK,69,48,849,69,2014-08-02T11:45:00,0,20882740,197355
OK,69,48,849,69,2014-08-02T11:50:00,0,20883189,197355
OK,69,48,849,69,2014-08-02T11:55:00,0,20883638,197355
OK,69,48,849,69,2014-08-02T12:00:00,0,20884087,197355
OK,69,48,849,69,2014-08-02T12:05:00,0,20884536,197355
OK,69,48,849,69,2014-08-02T12:10:00,0,20884985,197355
OK,69,48,849,69,2014-08-02T12:15:00,0,20885434,197355
OK,69,48,849,69,2014-08-02T12:20:00,0,20885883,197355
OK,42,80,849,42,2014-08-02T12:25:00,0,20886332,197355
OK,42,80,849,42,2014-08-02T12:30:00,0,20886781,197355
OK,42,80,849,42,2014-08-02T12:35:00,0,20887230,197355
OK,42,80,849,42,2014-08-02T12:40:00,0,20887679,197355
OK,42,80,849,42,2014-08-02T12:45:00,0,20888128,197355
OK,42,80,849,42,2014-08-02T12:50:00,0,20888577,197355
OK,42,80,849,42,2014-08-02T12:55:00,0,20889026,197355
OK,42,80,849,42,2014-08-02T13:00:00,0,20889475,197355
OK,42,80,849,42,2014-08-02T13:05:00,0,20889924,197355
OK,42,80,849,42,2014-08-02T13:10:00,0,20890373,197355
OK,42,80,849,42,2014-08-02T13:15:00,0,20890822,197355
OK,42,80,849,42,2014-08-02T13:20:00,0,20891271,197355
OK,42,80,849,42,2014-08-02T13:25:00,0,20891720,197355
OK,42,80,849,42,2014-08-02T13:30:00,0,20892169,197355
OK,42,80,849,42,2014-08-02T13:35:00,0,20892618,197355
OK,42,80,849,42,2014-08-02T13:40:00,0,20893067,197355
OK,42,80,849,42,2014-08-02T13:45:00,0,20893516,197355
OK,42,80,849,42,2014-08-02T13:50:00,0,20893965,197355
OK,42,80,849,42,2014-08-02T13:55:00,0,20894414,197355
OK,42,80,849,42,2014-08-02T14:00:00,0,20894863,197355
OK,42,80,849,42,2014-08-02T14:05:00,0,20895312,197355
OK,42,80,849,42,2014-08-02T14:10:00,0,20895761,197355
OK,42,80,849,42,2014-08-02T14:15:00,0,20896210,197355
OK,42,80,849,42,2014-08-02T14:20:00,0,20896659,197355
OK,42,80,849,42,2014-08-02T14:25:00,0,20897108,197355
OK,42,80,849,42,2014-08-02T14:30:00,0,20897557,197355
OK,42,80,849,42,2014-08-02T14:35:00,0,20898006,197355
OK,42,80,849,42,2014-08-02T14:40:00,0,20898455,197355
OK,42,80,849,42,2014-08-02T14:45:00,0,20898904,197355
OK,42,80,849,42,2014-08-02T14:50:00,0,20899353,197355
OK,42,80,849,42,2014-08-02T14:55:00,0,20899802,197355
OK,42,80,849,42,2014-08-02T15:00:00,0,20900251,197355
OK,61,55,849,61,2014-08-02T15:05:00,1,20900700,197355
OK,61,55,849,61,2014-08-02T15:10:00,0,20901149,197355
OK,61,55,849,61,2014-08-02T15:15:00,0,20901598,197355
OK,61,55,849,61,2014-08-02T15:20:00,0,20902047,197355
OK,61,55,849,61,2014-08-02T15:25:00,0,20902496,197355
OK,61,55,849,61,2014-08-02T15:30:00,0,20902945,197355
OK,61,55,849,61,2014-08-02T15:35:00,0,20903394,197355
OK,60,56,849,60,2014-08-02T15:40:00,1,20903843,197355
OK,60,56,849,60,2014-08-02T15:45:00,1,20904292,197355
OK,60,56,849,60,2014-08-02T15:50:00,0,20904741,197355
OK,60,56,849,60,2014-08-02T15:55:00,0,20905190,197355
OK,60,56,849,60,2014-08-02T16:00:00,0,20905639,197355
OK,63,53,849,63,2014-08-02T16:05:00,1,20906088,197355
OK,63,53,849,63,2014-08-02T16:10:00,0,20906537,197355
OK,62,54,849,62,2014-08-02T16:15:00,0,20906986,197355
OK,62,54,849,62,2014-08-02T16:20:00,0,20907435,197355
OK,62,54,849,62,2014-08-02T16:25:00,0,20907884,197355
OK,62,54,849,62,2014-08-02T16:30:00,0,20908333,197355
OK,62,54,849,62,2014-08-02T16:35:00,0,20908782,197355
OK,62,54,849,62,2014-08-02T16:40:00,0,20909231,197355
OK,62,54,849,62,2014-08-02T16:45:00,0,20909680,197355
OK,62,54,849,62,2014-08-02T16:50:00,0,20910129,197355
OK,62,54,849,62,2014-08-02T16:55:00,0,20910578,197355
OK,62,54,849,62,2014-08-02T17:00:00,0,20911027,197355
OK,62,54,849,62,2014-08-02T17:05:00,0,20911476,197355
OK,62,54,849,62,2014-08-02T17:10:00,0,20911925,197355
OK,62,54,849,62,2014-08-02T17:15:00,0,20912374,197355
OK,62,54,849,62,2014-08-02T17:20:00,0,20912823,197355
OK,62,54,849,62,2014-08-02T17:25:00,0,20913272,197355
OK,62,54,849,62,2014-08-02T17:30:00,0,20913721,197355
OK,62,54,849,62,2014-08-02T17:35:00,0,20914170,197355
OK,62,54,849,62,2014-08-02T17:40:00,0,20914619,197355
OK,62,54,849,62,2014-08-02T17:45:00,0,20915068,197355
OK,62,54,849,62,2014-08-02T17:50:00,0,20915517,197355
OK,62,54,849,62,2014-08-02T17:55:00,0,20915966,197355
OK,62,54,849,62,2014-08-02T18:00:00,0,20916415,197355
OK,62,54,849,62,2014-08-02T18:05:00,0,20916864,197355
OK,62,54,849,62,2014-08-02T18:10:00,0,20917313,197355
OK,62,54,849,62,2014-08-02T18:15:00,0,20917762,197355
OK,62,54,849,62,2014-08-02T18:20:00,0,20918211,197355
OK,62,54,849,62,2014-08-02T18:25:00,0,20918660,197355
OK,62,54,849,62,2014-08-02T18:30:00,0,20919109,197355
OK,62,54,849,62,2014-08-02T18:35:00,0,20919558,197355
OK,62,54,849,62,2014-08-02T18:40:00,0,20920007,197355
OK,62,54,849,62,2014-08-02T18:45:00,0,20920456,197355
OK,62,54,849,62,2014-08-02T18:50:00,0,20920905,197355
OK,62,54,849,62,2014-08-02T18:55:00,0,20921354,197355
OK,62,54,849,62,2014-08-02T19:00:00,0,20921803,197355
OK,62,54,849,62,2014-08-02T19:05:00,0,20922252,197355
OK,62,54,849,62,2014-08-02T19:10:00,0,20922701,197355
OK,62,54,849,62,2014-08-02T19:15:00,0,20923150,197355
OK,62,54,849,62,2014-08-02T19:20:00,0,20923599,197355
OK,62,54,849,62,2014-08-02T19:25:00,0,20924048,197355
OK,62,54,849,62,2014-08-02T19:30:00,0,20924497,197355
OK,62,54,849,62,2014-08-02T19:35:00,0,20924946,197355
OK,62,54,849,62,2014-08-02T19:40:00,0,20925395,197355
OK,62,54,849,62,2014-08-02T19:45:00,0,20925844,197355
OK,62,54,849,62,2014-08-02T19:50:00,0,20926293,197355
OK,62,54,849,62,2014-08-02T19:55:00,0,20926742,197355
OK,62,54,849,62,2014-08-02T20:00:00,0,20927191,197355
OK,62,54,849,62,2014-08-02T20:05:00,0,20927640,197355
OK,62,54,849,62,2014-08-02T20:10:00,0,20928089,197355
OK,62,54,849,62,2014-08-02T20:15:00,0,20928538,197355
OK,62,54,849,62,2014-08-02T20:20:00,0,20928987,197355
OK,62,54,849,62,2014-08-02T20:25:00,0,20929436,197355
OK,62,54,849,62,2014-08-02T20:30:00,0,20929885,197355
OK,62,54,849,62,2014-08-02T20:35:00,0,20930334,197355
OK,62,54,849,62,2014-08-02T20:40:00,0,20930783,197355
OK,62,54,849,62,2014-08-02T20:45:00,0,20931232,197355
OK,62,54,849,62,2014-08-02T20:50:00,0,20931681,197355
OK,62,54,849,62,2014-08-02T20:55:00,0,20932130,197355
OK,62,54,849,62,2014-08-02T21:00:00,0,20932579,197355
OK,62,54,849,62,2014-08-02T21:05:00,0,20933028,197355
OK,62,54,849,62,2014-08-02T21:10:00,0,20933477,197355
OK,62,54,849,62,2014-08-02T21:15:00,0,20933926,197355
OK,62,54,849,62,2014-08-02T21:20:00,0,20934375,197355
OK,62,54,849,62,2014-08-02T21:25:00,0,20934824,197355
OK,62,54,849,62,2014-08-02T21:30:00,0,20935273,197355
OK,62,54,849,62,2014-08-02T21:35:00,0,20935722,197355
OK,62,54,849,62,2014-08-02T21:40:00,0,20936171,197355
OK,62,54,849,62,2014-08-02T21:45:00,0,20936620,197355
OK,62,54,849,62,2014-08-02T21:50:00,0,20937069,197355
OK,62,54,849,62,2014-08-02T21:55:00,0,20937518,197355
OK,62,54,849,62,2014-08-02T22:00:00,0,20937967,197355
OK,62,54,849,62,2014-08-02T22:05:00,0,20938416,197355
OK,62,54,849,62,2014-08-02T22:10:00,0,20938865,197355
OK,62,54,849,62,2014-08-02T22:15:00,0,20939314,197355
OK,62,54,849,62,2014-08-02T22:20:00,0,20939763,197355
OK,62,54,849,62,2014-08-02T22:25:00,0,20940212,197355
OK,62,54,849,62,2014-08-02T22:30:00,0,20940661,197355
OK,62,54,849,62,2014-08-02T22:35:00,0,20941110,197355
OK,62,54,849,62,2014-08-02T22:40:00,0,20941559,197355
OK,62,54,849,62,2014-08-02T22:45:00,0,20942008,197355
OK,62,54,849,62,2014-08-02T22:50:00,0,20942457,197355
OK,62,54,849,62,2014-08-02T22:55:00,0,20942906,197355
OK,62,54,849,62,2014-08-02T23:00:00,0,20943355,197355
OK,62,54,849,62,2014-08-02T23:10:00,0,20943804,197355
OK,62,54,849,62,2014-08-02T23:15:00,0,20944253,197355
OK,62,54,849,62,2014-08-02T23:20:00,0,20944702,197355
OK,62,54,849,62,2014-08-02T23:25:00,0,20945151,197355
OK,62,54,849,62,2014-08-02T23:30:00,0,20945600,197355
OK,62,54,849,62,2014-08-02T23:35:00,0,20946049,197355
OK,62,54,849,62,2014-08-02T23:40:00,0,20946498,197355
OK,62,54,849,62,2014-08-02T23:45:00,0,20946947,197355
OK,62,54,849,62,2014-08-02T23:50:00,0,20947396,197355
OK,62,54,849,62,2014-08-02T23:55:00,0,20947845,197355
OK,62,54,849,62,2014-08-03T00:00:00,0,20948294,197355
OK,62,54,849,62,2014-08-03T00:05:00,0,20948743,197355
OK,62,54,849,62,2014-08-03T00:10:00,0,20949191,197355
OK,62,54,849,62,2014-08-03T00:15:00,0,20949640,197355
OK,62,54,849,62,2014-08-03T00:20:00,0,20950089,197355
OK,62,54,849,62,2014-08-03T00:25:00,0,20950538,197355
OK,62,54,849,62,2014-08-03T00:30:00,0,20950987,197355
OK,62,54,849,62,2014-08-03T00:35:00,0,20951436,197355
OK,62,54,849,62,2014-08-03T00:40:00,0,20951885,197355
OK,62,54,849,62,2014-08-03T00:45:00,0,20952334,197355
OK,62,54,849,62,2014-08-03T00:50:00,0,20952783,197355
OK,62,54,849,62,2014-08-03T00:55:00,0,20953232,197355
OK,62,54,849,62,2014-08-03T01:00:00,0,20953681,197355
OK,62,54,849,62,2014-08-03T01:05:00,0,20954130,197355
OK,62,54,849,62,2014-08-03T01:10:00,0,20954579,197355
OK,62,54,849,62,2014-08-03T01:15:00,0,20955028,197355
OK,62,54,849,62,2014-08-03T01:20:00,0,20955477,197355
OK,62,54,849,62,2014-08-03T01:25:00,0,20955926,197355
OK,62,54,849,62,2014-08-03T01:30:00,0,20956375,197355
OK,62,54,849,62,2014-08-03T01:35:00,0,20956824,197355
OK,62,54,849,62,2014-08-03T01:40:00,0,20957273,197355
OK,62,54,849,62,2014-08-03T01:45:00,0,20957722,197355
OK,62,54,849,62,2014-08-03T01:50:00,0,20958171,197355
OK,62,54,849,62,2014-08-03T01:55:00,0,20958620,197355